Find Meteor-2

NORAD ID: 13718 Int'l Des: 1982-116 Owner: GUKOS/GMS Country: SU operational
LEOCIRCULARPOLAR

实时位置

正在加载3D地球...

关于 Meteor-2

正在加载描述...

即将过境

Passes for default location (London). Set your location on the main map for personalized predictions.

高度历史

Loading altitude history...

两行轨道根数

1 13718U 82116A 26107.27774891 .00000045 00000-0 15629-4 0 9995
2 13718 81.2516 47.0901 0053963 133.8020 226.7637 14.15938976237759
Epoch: Apr 17, 2026 • Age: 10 hours

当前状态

高度 896.0 km
速度 7.38 km/s
星下点 -46.46°S, 57.68°W
发射日期 Dec 14, 1982
运行时间 43.3 years
类型 other

技术详情

分类 Payload
质量 1500.00 kg
干质量 1500.00 kg
总质量 1500.00 kg
长度 4.50 m
直径 1.40 m
跨度 4.50 m
形状 Cyl + 2 Pan
制造商 VNIEM
平台类型 Meteor-2
阶段状态 In Orbit
所有者/国家 GUKOS/GMS/SU

Most Searched